Miscellaneous Local Product
Issued by NWS Hastings, NE

Home | Current Version | Previous Version | Text Only | Print | Product List | Glossary Off
Versions: 1 2 3 4 5 6 7 8 9 10 11 12 13 14 15 16 17 18 19 20 21 22 23 24 25 26 27 28 29 30 31 32 33 34 35 36 37 38 39 40 41 42 43 44 45 46 47 48 49 50

000
AXUS43 KGID 202102
MISGRI

GID CWA HOURLY WEATHER ROUNDUP
NATIONAL WEATHER SERVICE HASTINGS NE
400 PM CDT WED AUG 20 2014

NOTE: "FAIR" INDICATES FEW OR NO CLOUDS BELOW 12,000 FEET WITH NO
SIGNIFICANT WEATHER AND/OR OBSTRUCTIONS TO VISIBILITY.

...SOUTH CENTRAL NEBRASKA...

CITY           SKY/WX    TMP DP  RH WIND       PRES   REMARKS
GRAND ISLAND   SUNNY     90  73  57 S18G25    29.76F HX  98
HASTINGS       SUNNY     91  67  44 S16G25    29.75F HX  94
KEARNEY        MOSUNNY   91  73  55 SE20      29.75F HX 100
ORD            MOSUNNY   87  73  62 S15       29.73S HX  94
YORK           SUNNY     90 N/A N/A S17       29.77F
AURORA         SUNNY     91  73  54 S15       29.76F HX  99
LEXINGTON      SUNNY     90  70  50 SE16      29.74F HX  95
HOLDREGE       MOSUNNY   91  65  42 S10       29.75S HX  92
HEBRON         SUNNY     91  66  43 S17G26    29.76F HX  94

...NEBRASKA PANHANDLE...

CITY           SKY/WX    TMP DP  RH WIND       PRES   REMARKS
CHADRON        MOSUNNY   95  51  22 W10G16    29.73F HX  92
ALLIANCE       PTSUNNY   91  50  24 W17G24    29.80F
SCOTTSBLUFF    MOSUNNY   90  49  24 W18G24    29.82F
SIDNEY         CLOUDY    88  48  25 NW14      29.86S

...WESTERN AND NORTH CENTRAL NEBRASKA...

CITY           SKY/WX    TMP DP  RH WIND       PRES   REMARKS
VALENTINE      MOSUNNY   91  58  32 S10G20    29.73F HX  90
AINSWORTH      MOSUNNY   86  67  53 SE9       29.74F
ONEILL         PTSUNNY   84  71  65 S14       29.74F HX  90
BROKEN BOW     PTSUNNY   91  72  53 S10       29.75F HX  98
IMPERIAL       SUNNY     90  57  32 NE8       29.80F
NORTH PLATTE   SUNNY     88  66  48 VRB5      29.76F HX  90
MCCOOK         PTSUNNY   96  61  31 S9        29.74F HX  96

...EASTERN NEBRASKA...

CITY           SKY/WX    TMP DP  RH WIND       PRES   REMARKS
NORFOLK        PTSUNNY   83  73  72 SE15      29.76F
SO SIOUX CITY  CLOUDY    75  71  87 SE7       29.79F
TEKAMAH        PTSUNNY   87  73  62 SE13G21   29.78F HX  94
COLUMBUS       MOSUNNY   88  72  58 S13G24    29.76F HX  94
ALBION         MOSUNNY   86  73  65 SE14      29.74F HX  93
OMAHA EPPLEY   MOSUNNY   90  73  57 SE20      29.79F HX  98
OFFUTT AFB     MOSUNNY   89  79  72 SE20      29.79F HX 104
MILLARD        MOSUNNY   90  73  57 SE20      29.78F HX  98
LINCOLN        SUNNY     95  66  38 S18G30    29.77F HX  98
NEBRASKA CITY  SUNNY     89  73  59 SE17G23   29.81F HX  96
BEATRICE       SUNNY     94  70  45 S18G24    29.78F HX 100
FALLS CITY     SUNNY     94  71  47 S17G23    29.80F HX 101

...NORTHERN KANSAS...

CITY           SKY/WX    TMP DP  RH WIND       PRES   REMARKS
GOODLAND       PTSUNNY   96  53  23 MISG      29.80F HX  93
HILL CITY      CLOUDY    98  64  32 S18G25    29.73F HX 100
NORTON         CLEAR     93  55  27 SE14G20   29.73F HX  91
PHILLIPSBURG   SUNNY     95  63  34 S14G20    29.72F HX  96
SMITH CENTER   MOSUNNY   97  63  32 S18G30    29.74F HX  98
BELOIT         SUNNY     95  70  43 S13G23    29.73F HX 101
HAYS           PTSUNNY   97  64  34 S24G31    29.74F HX  99
RUSSELL        MOSUNNY   96  64  34 S23G33    29.74F HX  98
CONCORDIA      SUNNY     92  71  50 S20G26    29.77F HX  98
SALINA         SUNNY     96  68  39 S20G31    29.77F HX 101
TOPEKA         MOSUNNY   95  69  42 S12       29.81F HX 100



USA.gov is the U.S. government's official web portal to all federal, state and local government web resources and services.